Theta_e
317 325 337 345 347 347 346 345 345 346 346 345 344 343 341 340 342 342 343 343 341 341 341 340 338 337 336 337 338 337 338 339 338 337 339 338 337 336 337 337 337 332 336
313 327 334 340 344 345 345 343 343 344 345 345 345 344 343 342 341 340 340 341 340 340 339 338 337 338 336 334 334 338 338 336 334 334 335 336 336 338 337 337 337 335 338
312 322 325 334 338 341 343 342 343 343 345 345 345 344 344 343 342 341 340 340 339 338 337 335 335 336 334 330 330 332 334 333 332 333 332 325 325 337 338 338 337 339 339
311 319 322 330 329 332 338 340 342 341 342 343 343 344 344 342 342 341 340 339 338 336 336 334 338 336 334 332 330 331 330 329 328 329 324 327 329 335 337 336 338 338 338
310 314 321 327 327 328 329 333 336 340 341 341 342 343 344 343 342 342 340 339 339 337 335 333 337 335 333 332 331 330 328 327 327 322 317 318 324 334 336 336 336 335 336
309 310 314 323 325 325 325 326 328 331 336 341 340 340 341 342 341 340 340 340 340 338 335 336 336 333 332 332 331 329 327 327 323 315 316 319 322 333 338 337 334 332 335
306 307 310 318 320 321 322 323 324 325 328 331 336 339 340 341 342 341 340 341 340 339 334 336 335 332 332 331 329 328 328 326 317 316 317 325 326 335 335 335 334 333 334
305 307 308 312 315 316 318 319 321 322 324 326 327 332 335 338 340 341 341 340 339 340 338 337 333 332 331 330 329 328 328 325 319 316 316 322 332 334 335 334 336 335 333
303 304 305 306 309 312 314 315 317 318 320 322 323 324 325 327 336 338 338 339 338 338 338 337 334 333 330 329 328 329 326 323 315 316 320 320 333 333 335 336 336 335 334
302 302 303 303 305 306 307 313 314 315 316 318 319 322 323 323 328 333 332 335 337 337 337 336 335 332 330 329 329 328 324 323 315 315 317 321 333 333 335 336 335 334 333
302 302 302 302 303 305 307 309 310 312 313 313 315 320 322 323 326 330 330 332 334 335 336 335 334 332 330 328 328 326 323 316 314 315 318 326 334 333 333 334 334 333 332
297 300 301 300 301 303 305 306 306 308 308 308 311 315 320 322 323 330 325 327 330 330 333 333 333 330 326 322 323 324 318 315 314 315 316 328 334 333 332 332 332 332 333
297 298 300 301 301 301 302 304 304 305 305 306 308 310 312 317 322 324 329 327 328 323 329 329 328 323 321 320 319 319 317 314 312 313 320 329 334 333 333 333 333 333 334
296 298 299 300 299 301 301 302 303 303 304 304 305 307 308 310 316 319 327 327 328 327 326 325 322 320 318 318 317 316 316 314 312 316 318 324 331 333 333 332 331 332 332
296 297 298 299 299 301 301 301 302 302 302 303 304 306 308 308 313 319 323 325 325 325 325 322 320 318 316 315 314 315 315 312 313 317 320 320 328 332 332 332 331 330 328
297 297 298 299 299 300 300 300 301 302 302 303 303 305 307 309 310 314 320 323 323 324 323 322 319 317 316 314 314 314 312 313 315 318 323 323 326 329 329 330 330 330 330
297 297 297 299 300 299 300 302 302 304 305 305 304 304 305 307 308 314 317 322 323 324 323 322 320 316 315 314 313 312 312 315 318 319 320 321 321 321 327 329 329 329 330
295 295 297 299 298 299 301 303 303 304 304 305 305 306 305 307 308 310 313 317 324 324 323 322 319 316 314 312 310 311 312 317 317 317 316 315 316 318 320 323 326 328 328
292 294 295 297 297 300 301 302 303 304 304 305 305 305 307 307 307 308 312 313 324 323 321 321 319 317 314 313 313 313 315 314 315 314 312 312 313 313 313 314 315 318 324
292 294 295 296 298 300 301 303 303 303 304 305 305 306 307 308 306 307 310 312 322 321 320 320 318 317 315 314 314 311 312 312 311 310 310 311 309 308 308 307 308 310 317
292 293 295 296 299 300 300 300 300 300 302 304 305 306 307 308 306 306 310 315 322 320 319 319 317 315 313 313 309 308 307 308 308 308 309 308 307 307 306 306 305 305 305
291 292 295 296 300 300 300 300 301 302 303 305 305 306 307 310 306 307 311 319 321 318 318 319 317 315 314 314 310 308 303 304 305 306 307 306 305 306 304 302 301 300 301
290 291 294 295 298 299 300 301 301 304 307 304 305 305 307 310 309 310 312 320 318 316 317 318 317 314 313 314 314 310 305 302 301 304 303 304 304 303 303 300 299 299 298
291 292 293 295 299 299 300 299 299 301 303 308 310 310 310 308 311 314 319 320 319 321 319 319 318 316 315 312 312 311 309 306 301 297 302 303 302 301 300 298 296 296 296
291 291 292 297 298 298 299 299 299 300 303 309 314 311 307 311 315 320 320 320 320 320 319 319 317 316 316 314 312 308 306 305 304 300 296 297 298 298 297 295 294 292 292
290 291 292 297 296 298 298 298 299 299 301 306 309 310 311 313 315 319 319 319 319 318 318 318 318 317 315 313 311 310 308 304 302 302 298 297 293 294 295 295 292 291 290
Wind_Speed
5 10 15 17 13 11 5 5 5 7 9 9 8 7 7 8 8 9 9 8 8 9 10 10 9 9 9 9 9 10 10 11 10 11 12 12 11 10 10 10 8 5 7
8 7 12 17 18 16 11 7 6 7 10 10 9 9 8 9 9 9 9 10 10 11 12 12 12 14 14 10 8 11 12 11 10 10 9 8 8 8 9 8 6 4 7
6 7 10 16 16 17 18 12 10 8 10 11 11 11 11 11 10 10 9 9 10 11 10 10 11 9 12 9 7 10 11 11 8 9 7 4 3 8 8 6 4 8 7
6 6 8 13 15 14 16 16 13 11 11 11 12 13 14 13 13 12 12 12 10 10 10 9 11 13 12 13 8 7 7 7 6 6 3 3 1 7 6 6 6 8 8
7 6 7 13 15 16 16 15 14 16 13 13 14 15 16 15 14 14 14 14 13 11 10 9 12 12 13 12 9 9 5 5 4 4 1 1 2 4 8 7 6 7 6
7 7 9 14 14 15 16 16 15 14 16 13 16 15 17 17 16 17 16 15 15 14 13 12 13 12 12 11 11 9 6 4 5 2 1 4 5 6 10 8 6 6 4
7 6 6 13 14 15 15 15 16 16 14 15 16 16 17 18 17 17 18 17 16 15 15 16 13 12 12 10 9 9 7 5 3 1 2 4 5 8 8 7 7 6 5
6 6 6 10 14 15 16 15 15 16 16 16 15 16 18 18 19 18 19 19 18 17 16 17 14 14 11 11 9 8 8 6 3 2 3 4 5 8 5 4 10 7 4
6 6 6 7 9 12 14 15 14 16 16 16 16 15 16 20 19 19 19 20 20 18 15 16 15 15 14 10 9 7 6 7 4 2 3 3 6 6 6 8 9 7 5
7 6 6 6 7 6 6 12 15 16 17 17 16 11 13 15 17 17 16 19 20 18 16 17 18 17 14 12 9 6 5 3 2 1 1 3 6 6 6 7 7 5 4
6 7 7 7 8 8 7 6 10 13 15 15 11 10 8 6 11 12 13 16 20 18 17 17 17 17 14 11 9 8 4 1 1 2 1 7 9 8 6 6 5 4 3
5 6 5 6 7 7 7 7 6 6 5 6 7 7 6 6 6 8 9 15 16 16 15 19 17 16 12 4 3 6 2 2 1 1 2 7 9 8 7 6 4 2 1
5 4 6 6 6 6 5 5 3 3 3 4 5 7 5 6 4 5 6 8 10 11 8 12 11 6 6 5 3 3 3 2 1 1 3 6 8 8 8 6 5 4 6
6 7 7 7 6 6 4 5 6 5 4 3 4 6 5 4 5 4 4 9 10 7 8 7 5 5 6 6 5 4 4 3 2 1 2 5 6 6 8 6 5 9 9
6 6 8 7 7 7 6 6 7 7 6 6 4 5 5 5 5 3 4 7 5 6 8 7 7 7 5 5 5 5 4 3 4 0 1 5 3 9 10 11 11 8 6
7 7 7 9 7 6 8 9 8 7 7 7 5 4 6 6 4 4 4 5 4 5 4 6 7 6 5 5 5 5 5 3 3 5 4 5 12 15 13 11 10 6 6
6 7 8 10 8 9 10 9 7 8 9 7 6 6 6 6 6 5 3 7 8 6 9 6 6 5 5 3 5 4 4 5 5 6 6 6 9 12 13 13 13 12 11
7 7 9 9 11 10 9 10 8 8 8 8 7 5 6 7 7 4 4 6 12 10 9 7 7 5 5 5 3 4 4 6 7 8 7 6 5 6 12 16 18 17 13
6 7 9 9 10 12 11 9 10 11 8 8 7 6 7 6 6 4 3 6 13 10 9 8 6 7 5 5 5 5 6 6 8 8 10 9 8 7 5 14 20 18 17
6 7 8 7 9 12 9 8 8 8 8 7 7 6 7 5 5 4 3 5 8 10 8 6 9 7 4 7 8 9 7 7 7 7 8 7 8 7 6 7 7 10 17
6 8 9 8 11 9 8 8 7 7 8 6 6 7 6 6 5 5 4 7 11 11 9 8 6 12 6 9 8 8 8 9 9 6 6 7 8 8 8 8 6 6 7
6 7 9 9 12 10 7 8 5 7 7 6 4 5 5 5 5 5 6 6 13 11 14 9 9 6 4 5 6 5 4 4 7 7 6 7 8 7 8 9 9 8 7
7 8 10 9 11 10 11 9 7 8 5 3 3 3 4 6 5 5 5 10 12 10 13 13 12 12 9 4 10 4 4 4 4 5 8 5 7 7 7 8 9 8 8
6 7 8 9 10 10 11 10 11 7 8 4 3 1 2 4 4 5 7 11 9 6 9 10 11 9 9 11 3 2 4 8 5 5 4 6 8 8 8 6 8 8 7
6 7 7 8 9 11 11 11 9 9 8 7 4 2 2 4 5 5 9 7 7 5 8 9 10 9 6 5 5 3 5 6 6 7 6 6 7 7 6 7 6 5 6
6 7 7 9 9 10 11 12 11 12 12 7 7 6 7 6 3 8 8 7 7 6 7 8 9 9 7 7 5 4 7 4 8 7 7 6 7 4 5 5 5 4 4
Wind_Direction
314 320 345 358 357 315 226 207 227 235 224 223 209 198 176 170 169 165 161 157 153 151 144 140 139 152 122 120 126 114 110 102 90 83 86 98 106 108 102 109 98 97 104
284 311 354 4 2 347 315 283 261 264 235 228 226 216 203 187 179 176 170 163 168 166 159 158 166 165 137 122 120 119 108 95 88 82 78 85 111 102 126 108 117 157 123
332 351 3 8 5 5 1 324 287 266 254 243 228 226 219 209 196 187 186 183 176 174 170 178 157 146 136 134 168 148 115 89 91 88 88 89 114 114 113 124 77 107 92
346 6 6 5 9 4 4 1 338 286 274 265 249 237 227 218 208 196 191 187 192 189 187 194 154 129 127 130 143 119 85 90 98 99 85 91 340 141 124 103 75 85 58
21 13 359 3 5 5 2 355 349 343 277 266 256 243 232 226 218 208 197 193 191 190 191 196 173 147 130 137 144 120 119 112 101 84 81 264 263 190 140 120 98 84 73
24 10 7 15 5 1 356 351 348 338 345 296 264 254 244 230 220 212 206 194 191 190 196 171 167 152 149 149 139 138 141 126 103 93 303 256 210 229 142 135 126 118 108
19 11 8 10 5 1 354 346 342 338 330 330 335 281 252 240 224 211 205 200 195 189 190 175 173 149 157 169 153 161 150 127 124 91 192 144 170 190 144 145 141 127 127
29 356 352 355 354 348 346 342 338 336 329 323 324 316 324 261 235 220 207 203 196 192 194 176 166 154 150 154 180 179 158 145 133 115 118 112 162 148 133 165 148 131 131
8 359 350 339 336 339 339 335 334 334 330 326 320 317 320 310 259 228 215 204 199 197 184 173 158 161 162 172 189 191 179 158 148 130 139 155 191 129 95 127 138 124 123
4 354 340 330 327 324 322 325 332 329 328 327 326 310 301 300 296 230 216 207 200 196 184 170 156 155 162 178 186 191 198 172 148 161 190 189 201 149 146 121 119 122 124
354 341 340 333 327 320 312 307 321 320 325 325 323 318 294 280 299 241 205 200 197 198 187 168 160 158 163 174 177 188 172 145 196 214 187 203 196 163 166 150 136 134 139
314 319 326 322 314 312 310 305 300 301 306 311 310 303 309 286 297 259 223 195 190 192 175 166 166 157 147 150 174 181 143 168 219 245 254 215 185 165 165 162 145 121 327
283 286 301 297 296 300 304 304 287 285 292 293 292 297 299 297 252 293 195 211 190 179 167 165 159 149 148 148 163 167 169 175 220 253 258 223 173 173 165 167 154 68 57
295 287 290 296 295 287 290 294 296 293 284 268 263 289 291 288 280 309 224 197 178 165 162 155 144 148 144 153 152 174 179 157 210 239 246 243 176 173 161 123 101 83 63
287 287 284 297 297 298 292 296 298 290 286 270 248 262 282 278 281 305 291 158 158 148 160 153 152 145 141 147 160 171 177 174 158 68 113 35 72 95 93 90 73 65 62
293 295 298 308 295 293 295 289 286 283 276 268 238 238 259 272 271 264 274 143 153 147 153 152 157 148 145 147 158 152 147 134 114 105 86 71 83 90 89 84 75 71 81
295 304 318 316 322 310 300 284 283 285 291 279 273 229 244 252 259 250 271 226 193 173 141 137 143 128 128 135 150 143 124 104 81 79 75 82 74 64 72 70 67 59 77
322 330 306 310 313 302 293 302 295 290 283 279 273 251 229 247 247 242 238 285 185 171 160 167 148 137 131 132 121 101 95 85 83 81 74 69 73 69 62 66 63 54 74
317 314 314 316 307 310 308 303 300 291 279 272 270 258 245 231 229 239 265 287 172 160 151 165 154 141 133 134 109 84 82 81 87 92 82 79 75 75 72 62 56 43 55
322 320 310 304 318 314 312 314 303 297 283 263 255 249 254 245 203 209 254 266 159 141 148 149 141 127 126 115 97 86 78 75 76 77 84 81 75 69 62 52 49 43 48
335 325 325 319 323 327 327 325 319 301 291 270 255 250 245 240 199 209 231 252 156 154 120 129 126 142 132 125 101 88 65 66 67 69 78 83 77 71 63 55 50 48 37
313 319 322 335 329 327 325 315 294 296 282 269 260 257 257 254 193 210 205 192 134 134 138 167 168 154 110 163 126 116 116 93 61 50 68 78 78 77 68 64 61 54 45
338 333 326 328 321 325 331 321 316 304 292 257 244 239 231 240 188 222 220 179 146 156 161 167 155 164 150 165 164 134 141 118 147 30 47 73 80 77 74 65 62 55 51
329 325 330 326 330 338 337 337 327 326 328 319 282 156 213 194 210 204 184 152 152 135 155 156 154 165 152 173 135 51 75 135 128 128 50 65 69 65 63 61 58 52 42
343 325 329 328 341 351 347 347 335 347 333 330 19 112 158 170 180 145 133 126 141 141 144 153 152 159 152 156 150 138 80 91 89 125 138 112 74 59 62 64 59 50 39
347 337 342 341 356 357 0 355 352 2 345 1 35 52 38 36 96 110 118 126 122 137 150 160 165 156 124 112 115 116 136 139 147 139 130 114 111 60 62 58 48 47 38